TimeMST,TemperatureF,Dew PointF,Humidity,Sea Level PressureIn,VisibilityMPH,Wind Direction,Wind SpeedMPH,Gust SpeedMPH,PrecipitationIn,Events,Conditions,WindDirDegrees,DateUTC
12:07 AM,51.1,26.1,38,29.82,10.0,West,10.4,44.9,N/A,,Clear,260,2013-11-08 07:07:00
12:53 AM,51.1,26.1,38,29.75,10.0,WNW,17.3,33.4,N/A,,Clear,290,2013-11-08 07:53:00
1:53 AM,50.0,25.0,38,29.73,10.0,North,10.4,19.6,N/A,,Scattered Clouds,10,2013-11-08 08:53:00
2:53 AM,46.9,25.0,42,29.73,10.0,NNW,9.2,-,N/A,,Scattered Clouds,340,2013-11-08 09:53:00
3:53 AM,48.0,25.0,41,29.70,10.0,Calm,Calm,-,N/A,,Mostly Cloudy,0,2013-11-08 10:53:00
4:53 AM,51.1,23.0,33,29.70,10.0,West,16.1,-,N/A,,Mostly Cloudy,280,2013-11-08 11:53:00
5:53 AM,48.9,24.1,38,29.70,10.0,WNW,12.7,33.4,N/A,,Clear,290,2013-11-08 12:53:00
6:53 AM,46.9,25.0,42,29.71,10.0,North,9.2,-,N/A,,Partly Cloudy,360,2013-11-08 13:53:00
7:53 AM,44.1,27.0,51,29.79,10.0,Variable,3.5,-,N/A,,Clear,0,2013-11-08 14:53:00
8:53 AM,50.0,26.1,39,29.77,10.0,West,9.2,-,N/A,,Partly Cloudy,270,2013-11-08 15:53:00
9:53 AM,52.0,21.0,30,29.75,10.0,West,28.8,44.9,N/A,,Clear,270,2013-11-08 16:53:00
10:53 AM,53.1,19.0,26,29.77,10.0,WNW,16.1,25.3,N/A,,Clear,290,2013-11-08 17:53:00
11:53 AM,55.0,23.0,29,29.74,10.0,East,12.7,-,N/A,,Clear,100,2013-11-08 18:53:00
12:53 PM,52.0,23.0,32,29.75,10.0,Variable,3.5,-,N/A,,Clear,0,2013-11-08 19:53:00
1:53 PM,53.1,19.9,27,29.75,10.0,NNW,3.5,-,N/A,,Clear,330,2013-11-08 20:53:00
2:53 PM,55.0,19.9,25,29.76,10.0,East,3.5,-,N/A,,Clear,100,2013-11-08 21:53:00
3:53 PM,55.0,17.1,23,29.76,10.0,WNW,8.1,-,N/A,,Clear,300,2013-11-08 22:53:00
4:53 PM,48.9,19.0,31,29.81,10.0,West,9.2,-,N/A,,Mostly Cloudy,260,2013-11-08 23:53:00
5:53 PM,45.0,18.0,34,29.86,10.0,NNW,8.1,-,N/A,,Overcast,340,2013-11-09 00:53:00
6:53 PM,43.0,17.1,35,29.89,10.0,Calm,Calm,-,N/A,,Partly Cloudy,0,2013-11-09 01:53:00
7:53 PM,39.9,18.0,41,29.93,10.0,Calm,Calm,-,N/A,,Clear,0,2013-11-09 02:53:00
8:53 PM,41.0,18.0,40,29.92,10.0,Calm,Calm,-,N/A,,Clear,0,2013-11-09 03:53:00
9:53 PM,35.1,19.9,54,29.97,10.0,Calm,Calm,-,N/A,,Clear,0,2013-11-09 04:53:00
10:53 PM,37.0,19.9,50,29.98,10.0,Variable,4.6,-,N/A,,Partly Cloudy,0,2013-11-09 05:53:00
11:53 PM,35.1,21.9,59,29.97,10.0,SE,8.1,-,N/A,,Overcast,130,2013-11-09 06:53:00